When you browse on this site, cookies collect data to enhance your experience and personalize the content and advertising you see.
Visit our Privacy Policy to learn more. By continuing to use the site, you agree to this use of cookies and data.
  • In Slovakia
  • List of Countries
  • For 7 days
  • Water Temperature
  • Weather Map
  • Weather Widgets
  • user-avatar
    Login

    Hourly Weather Albena

    Today, 29 May, Friday

    Time Temperature Precipitation Wind Pressure Humidity
    00:00 +10°C° 0 mm 3 mps 746 mmHg 87%
    01:00 +10°C° 0 mm 3 mps 745 mmHg 87%
    02:00 +10°C° 0 mm 3 mps 745 mmHg 87%
    03:00 +9°C° 0 mm 3 mps 745 mmHg 87%
    04:00 +9°C° 0 mm 3 mps 745 mmHg 87%
    05:00 +9°C° 0 mm 3 mps 745 mmHg 88%
    06:00 +11°C° 0 mm 3 mps 745 mmHg 84%
    07:00 +13°C° 0 mm 3 mps 746 mmHg 80%
    08:00 +14°C° 0 mm 3 mps 746 mmHg 76%
    09:00 +17°C° 0.5 mm 3 mps 745 mmHg 72%
    10:00 +18°C° 0.5 mm 3 mps 745 mmHg 67%
    11:00 +19°C° 0.5 mm 3 mps 745 mmHg 63%
    12:00 +19°C° 1 mm 3 mps 745 mmHg 63%
    13:00 +19°C° 1 mm 3 mps 745 mmHg 64%
    14:00 +19°C° 1 mm 3 mps 745 mmHg 64%
    15:00 +19°C° 1.3 mm 3 mps 745 mmHg 67%
    16:00 +18°C° 1.3 mm 3 mps 745 mmHg 71%
    17:00 +18°C° 1.3 mm 3 mps 745 mmHg 74%
    18:00 +17°C° 0.4 mm 3 mps 745 mmHg 77%
    19:00 +15°C° 0.4 mm 2 mps 744 mmHg 80%
    20:00 +14°C° 0.4 mm 2 mps 744 mmHg 83%
    21:00 +13°C° 0.1 mm 2 mps 745 mmHg 85%
    22:00 +13°C° 0.1 mm 2 mps 745 mmHg 86%
    23:00 +13°C° 0.1 mm 2 mps 745 mmHg 87%

    Tomorrow, 30 May, Saturday

    Time Temperature Precipitation Wind Pressure Humidity
    00:00 +12°C° 0 mm 2 mps 744 mmHg 87%
    01:00 +12°C° 0 mm 1 mps 744 mmHg 87%
    02:00 +12°C° 0 mm 1 mps 744 mmHg 86%
    03:00 +12°C° 0 mm 1 mps 744 mmHg 86%
    04:00 +12°C° 0 mm 1 mps 744 mmHg 87%
    05:00 +12°C° 0 mm 1 mps 744 mmHg 87%
    06:00 +13°C° 0 mm 1 mps 744 mmHg 84%
    07:00 +15°C° 0 mm 2 mps 744 mmHg 80%
    08:00 +16°C° 0 mm 2 mps 745 mmHg 77%
    09:00 +17°C° 0.6 mm 3 mps 745 mmHg 75%
    10:00 +18°C° 0.6 mm 3 mps 745 mmHg 72%
    11:00 +19°C° 0.6 mm 4 mps 744 mmHg 70%
    12:00 +19°C° 1 mm 4 mps 744 mmHg 70%
    13:00 +20°C° 1 mm 5 mps 744 mmHg 70%
    14:00 +20°C° 1 mm 5 mps 744 mmHg 71%
    15:00 +20°C° 0.7 mm 5 mps 744 mmHg 72%
    16:00 +19°C° 0.7 mm 4 mps 744 mmHg 73%
    17:00 +19°C° 0.7 mm 4 mps 744 mmHg 74%
    18:00 +18°C° 0.1 mm 3 mps 744 mmHg 78%
    19:00 +17°C° 0.1 mm 3 mps 744 mmHg 83%
    20:00 +14°C° 0.1 mm 3 mps 744 mmHg 87%
    21:00 +15°C° 0 mm 2 mps 744 mmHg 87%
    22:00 +14°C° 0 mm 2 mps 744 mmHg 86%
    23:00 +14°C° 0 mm 2 mps 744 mmHg 86%

    Day after tomorrow, 31 May, Sunday

    Time Temperature Precipitation Wind Pressure Humidity
    00:00 +14°C° 0 mm 2 mps 744 mmHg 86%
    01:00 +13°C° 0 mm 2 mps 744 mmHg 86%
    02:00 +13°C° 0 mm 2 mps 743 mmHg 86%
    03:00 +13°C° 0 mm 2 mps 743 mmHg 86%
    04:00 +13°C° 0 mm 2 mps 744 mmHg 86%
    05:00 +13°C° 0 mm 2 mps 744 mmHg 86%
    06:00 +13°C° 0 mm 3 mps 744 mmHg 81%
    07:00 +16°C° 0 mm 3 mps 744 mmHg 76%
    08:00 +17°C° 0 mm 4 mps 744 mmHg 71%
    09:00 +18°C° 0 mm 4 mps 744 mmHg 67%
    10:00 +19°C° 0 mm 4 mps 744 mmHg 62%
    11:00 +20°C° 0 mm 4 mps 744 mmHg 57%
    12:00 +21°C° 0.2 mm 4 mps 744 mmHg 58%
    13:00 +21°C° 0.2 mm 4 mps 744 mmHg 59%
    14:00 +21°C° 0.2 mm 4 mps 743 mmHg 60%
    15:00 +19°C° 1.3 mm 4 mps 743 mmHg 70%
    16:00 +17°C° 1.3 mm 4 mps 743 mmHg 80%
    17:00 +16°C° 1.3 mm 3 mps 743 mmHg 89%
    18:00 +14°C° 0.2 mm 3 mps 743 mmHg 90%
    19:00 +15°C° 0.2 mm 2 mps 742 mmHg 90%
    20:00 +14°C° 0.2 mm 2 mps 742 mmHg 90%
    21:00 +14°C° 0 mm 2 mps 743 mmHg 90%
    22:00 +14°C° 0 mm 2 mps 743 mmHg 89%
    23:00 +14°C° 0 mm 2 mps 743 mmHg 89%

    1 June, Monday

    Time Temperature Precipitation Wind Pressure Humidity
    00:00 +14°C° 0.2 mm 2 mps 743 mmHg 89%
    01:00 +14°C° 0.2 mm 2 mps 742 mmHg 89%
    02:00 +14°C° 0.2 mm 2 mps 742 mmHg 89%
    03:00 +13°C° 0.1 mm 3 mps 742 mmHg 87%
    04:00 +12°C° 0.1 mm 4 mps 742 mmHg 86%
    05:00 +11°C° 0.1 mm 4 mps 742 mmHg 85%
    06:00 +11°C° 0.1 mm 4 mps 742 mmHg 84%
    07:00 +11°C° 0.1 mm 4 mps 743 mmHg 84%
    08:00 +12°C° 0.1 mm 4 mps 743 mmHg 83%
    09:00 +12°C° 0.1 mm 3 mps 743 mmHg 83%
    10:00 +12°C° 0.1 mm 3 mps 743 mmHg 82%
    11:00 +13°C° 0.1 mm 3 mps 743 mmHg 82%
    12:00 +14°C° 0 mm 2 mps 743 mmHg 79%
    13:00 +15°C° 0 mm 2 mps 743 mmHg 77%
    14:00 +16°C° 0 mm 1 mps 743 mmHg 74%
    15:00 +16°C° 0 mm 1 mps 743 mmHg 72%
    16:00 +18°C° 0 mm 1 mps 742 mmHg 71%
    17:00 +18°C° 0 mm 1 mps 742 mmHg 69%
    18:00 +16°C° 0 mm 1 mps 742 mmHg 73%
    19:00 +15°C° 0 mm 1 mps 742 mmHg 78%
    20:00 +14°C° 0 mm 1 mps 742 mmHg 82%
    21:00 +14°C° 0 mm 1 mps 742 mmHg 82%
    22:00 +14°C° 0 mm 1 mps 742 mmHg 81%
    23:00 +14°C° 0 mm 1 mps 743 mmHg 81%

    2 June, Tuesday

    Time Temperature Precipitation Wind Pressure Humidity
    00:00 +14°C° 0.3 mm 2 mps 742 mmHg 84%
    01:00 +13°C° 0.3 mm 3 mps 742 mmHg 88%
    02:00 +12°C° 0.3 mm 3 mps 742 mmHg 91%
    03:00 +12°C° 0.3 mm 4 mps 742 mmHg 92%
    04:00 +12°C° 0.3 mm 4 mps 742 mmHg 93%
    05:00 +12°C° 0.3 mm 4 mps 741 mmHg 94%
    06:00 +13°C° 0.3 mm 4 mps 742 mmHg 93%
    07:00 +13°C° 0.3 mm 4 mps 742 mmHg 92%
    08:00 +14°C° 0.3 mm 3 mps 742 mmHg 91%
    09:00 +14°C° 0.8 mm 3 mps 743 mmHg 90%
    10:00 +15°C° 0.8 mm 4 mps 743 mmHg 89%
    11:00 +15°C° 0.8 mm 4 mps 743 mmHg 88%
    12:00 +15°C° 0.8 mm 4 mps 743 mmHg 88%
    13:00 +15°C° 0.8 mm 4 mps 743 mmHg 88%
    14:00 +15°C° 0.8 mm 5 mps 743 mmHg 88%
    15:00 +15°C° 0.5 mm 5 mps 743 mmHg 89%
    16:00 +14°C° 0.5 mm 6 mps 743 mmHg 89%
    17:00 +14°C° 0.5 mm 7 mps 743 mmHg 90%
    18:00 +14°C° 0 mm 6 mps 743 mmHg 91%
    19:00 +13°C° 0 mm 6 mps 743 mmHg 92%
    20:00 +13°C° 0 mm 5 mps 743 mmHg 92%
    21:00 +12°C° 0.1 mm 5 mps 743 mmHg 92%
    22:00 +12°C° 0.1 mm 5 mps 743 mmHg 92%
    23:00 +12°C° 0.1 mm 5 mps 743 mmHg 92%

    3 June, Wednesday

    Time Temperature Precipitation Wind Pressure Humidity
    00:00 +12°C° 0.1 mm 5 mps 743 mmHg 92%
    01:00 +12°C° 0.1 mm 4 mps 743 mmHg 92%
    02:00 +12°C° 0.1 mm 4 mps 743 mmHg 92%
    03:00 +11°C° 0.1 mm 4 mps 743 mmHg 93%
    04:00 +11°C° 0.1 mm 4 mps 743 mmHg 93%
    05:00 +11°C° 0.1 mm 4 mps 743 mmHg 94%
    06:00 +10°C° 0.7 mm 5 mps 743 mmHg 91%
    07:00 +12°C° 0.7 mm 5 mps 743 mmHg 89%
    08:00 +12°C° 0.7 mm 5 mps 744 mmHg 86%
    09:00 +13°C° 0.8 mm 5 mps 744 mmHg 83%
    10:00 +14°C° 0.8 mm 5 mps 744 mmHg 81%
    11:00 +15°C° 0.8 mm 6 mps 744 mmHg 78%
    12:00 +15°C° 0.3 mm 6 mps 744 mmHg 76%
    13:00 +16°C° 0.3 mm 6 mps 744 mmHg 73%
    14:00 +16°C° 0.3 mm 6 mps 744 mmHg 71%
    15:00 +16°C° 0 mm 5 mps 744 mmHg 70%
    16:00 +16°C° 0 mm 5 mps 743 mmHg 69%
    17:00 +17°C° 0 mm 5 mps 743 mmHg 68%
    18:00 +15°C° 0 mm 4 mps 743 mmHg 75%
    19:00 +13°C° 0 mm 4 mps 743 mmHg 81%
    20:00 +12°C° 0 mm 3 mps 743 mmHg 88%
    21:00 +12°C° 0 mm 2 mps 744 mmHg 89%
    22:00 +12°C° 0 mm 2 mps 744 mmHg 89%
    23:00 +11°C° 0 mm 1 mps 744 mmHg 90%
    Show more